Starlink 2651

operational
NORAD ID: 48654 Int'l Des: 2021-044 Owner: SPXS Country: US Constellation: starlink
LEOCIRCULAR

Starlink 2651について

説明を読み込み中...

リアルタイム位置

3D地球を読み込み中...

次回通過

高度履歴

Altitude vs Time

uPlot chart will show altitude changes over time

軌道要素

1 48654U 21044S 25304.77869175 .00415235 75607-4 13569-2 0 9997
2 48654 53.0498 323.3554 0003818 57.5636 302.5758 15.90108357244510
Epoch: Oct 31, 2025 • Age: 25 hours

現在のステータス

高度 300.2 km
速度 7.73 km/s
衛星直下点 21.62°N, 147.68°E
打ち上げ日 May 26, 2021
運用期間 4.4 years
タイプ internet

技術仕様

分類 Payload
質量 260.00 kg
乾燥質量 248.00 kg
総質量 260.00 kg
長さ 0.20 m
直径 2.80 m
スパン 9.00 m
形状 Box + pan
製造者 SPXS
バスタイプ Starlink
フェーズステータス In Orbit
所有者/国 SPXS/US

大規模コンステレーション

Loading constellations...